TimeCDT,TemperatureF,Dew PointF,Humidity,Sea Level PressureIn,VisibilityMPH,Wind Direction,Wind SpeedMPH,Gust SpeedMPH,PrecipitationIn,Events,Conditions,WindDirDegrees,DateUTC
12:15 AM,41.0,32.0,70,29.88,10.0,NW,9.2,-,N/A,,Clear,320,2013-10-07 05:15:00
12:35 AM,41.0,32.0,70,29.88,10.0,NW,8.1,-,N/A,,Clear,320,2013-10-07 05:35:00
12:55 AM,39.2,32.0,75,29.88,10.0,NW,6.9,-,N/A,,Clear,320,2013-10-07 05:55:00
1:15 AM,37.4,32.0,81,29.89,10.0,NW,6.9,-,N/A,,Clear,310,2013-10-07 06:15:00
1:35 AM,35.6,32.0,87,29.89,10.0,NNW,6.9,-,N/A,,Clear,330,2013-10-07 06:35:00
1:55 AM,35.6,32.0,87,29.89,10.0,NNW,6.9,-,N/A,,Clear,330,2013-10-07 06:55:00
2:15 AM,35.6,30.2,81,29.90,10.0,West,4.6,-,N/A,,Clear,280,2013-10-07 07:15:00
2:35 AM,33.8,30.2,87,29.90,10.0,NNW,5.8,-,N/A,,Clear,330,2013-10-07 07:35:00
2:55 AM,35.6,30.2,81,29.90,10.0,NW,5.8,-,N/A,,Clear,320,2013-10-07 07:55:00
3:15 AM,32.0,30.2,93,29.90,10.0,North,6.9,-,N/A,,Clear,350,2013-10-07 08:15:00
3:35 AM,32.0,28.4,87,29.90,10.0,Calm,Calm,-,N/A,,Clear,0,2013-10-07 08:35:00
3:55 AM,32.0,28.4,87,29.90,10.0,Calm,Calm,-,N/A,,Clear,0,2013-10-07 08:55:00
4:15 AM,32.0,28.4,87,29.90,10.0,NNW,3.5,-,N/A,,Clear,330,2013-10-07 09:15:00
4:35 AM,32.0,28.4,87,29.91,10.0,Calm,Calm,-,N/A,,Clear,0,2013-10-07 09:35:00
4:55 AM,32.0,26.6,80,29.91,10.0,Calm,Calm,-,N/A,,Clear,0,2013-10-07 09:55:00
5:15 AM,30.2,28.4,93,29.91,10.0,North,3.5,-,N/A,,Clear,350,2013-10-07 10:15:00
5:35 AM,32.0,28.4,87,29.91,10.0,North,3.5,-,N/A,,Unknown,350,2013-10-07 10:35:00
5:55 AM,30.2,26.6,86,29.91,10.0,North,3.5,-,N/A,,Clear,350,2013-10-07 10:55:00
6:15 AM,30.2,26.6,86,29.92,10.0,North,3.5,-,N/A,,Clear,10,2013-10-07 11:15:00
6:35 AM,28.4,26.6,93,29.92,10.0,Calm,Calm,-,N/A,,Clear,0,2013-10-07 11:35:00
6:55 AM,30.2,28.4,93,29.93,10.0,Calm,Calm,-,N/A,,Clear,0,2013-10-07 11:55:00
7:15 AM,28.4,26.6,93,29.93,10.0,Calm,Calm,-,N/A,,Clear,0,2013-10-07 12:15:00
7:35 AM,28.4,24.8,86,29.93,10.0,Calm,Calm,-,N/A,,Clear,0,2013-10-07 12:35:00
7:55 AM,28.4,26.6,93,29.93,10.0,Calm,Calm,-,N/A,,Clear,0,2013-10-07 12:55:00
8:15 AM,28.4,26.6,93,29.93,10.0,Calm,Calm,-,N/A,,Scattered Clouds,0,2013-10-07 13:15:00
8:35 AM,33.8,28.4,81,29.93,10.0,Calm,Calm,-,N/A,,Scattered Clouds,0,2013-10-07 13:35:00
8:55 AM,37.4,32.0,81,29.94,10.0,Calm,Calm,-,N/A,,Scattered Clouds,0,2013-10-07 13:55:00
9:15 AM,41.0,35.6,81,29.94,10.0,Calm,Calm,-,N/A,,Mostly Cloudy,0,2013-10-07 14:15:00
9:35 AM,44.6,35.6,71,29.94,10.0,Calm,Calm,-,N/A,,Mostly Cloudy,0,2013-10-07 14:35:00
9:55 AM,46.4,37.4,71,29.95,10.0,Calm,Calm,-,N/A,,Mostly Cloudy,0,2013-10-07 14:55:00
10:15 AM,50.0,39.2,66,29.95,10.0,Calm,Calm,-,N/A,,Scattered Clouds,0,2013-10-07 15:15:00
10:35 AM,53.6,39.2,58,29.94,10.0,Calm,Calm,-,N/A,,Clear,0,2013-10-07 15:35:00
10:55 AM,55.4,39.2,54,29.94,10.0,SSE,4.6,-,N/A,,Clear,150,2013-10-07 15:55:00
11:15 AM,55.4,37.4,51,29.94,10.0,South,6.9,-,N/A,,Clear,190,2013-10-07 16:15:00
11:35 AM,57.2,37.4,48,29.93,10.0,SSW,8.1,-,N/A,,Clear,210,2013-10-07 16:35:00
11:55 AM,57.2,37.4,48,29.93,10.0,SW,4.6,-,N/A,,Clear,220,2013-10-07 16:55:00
12:15 PM,57.2,37.4,48,29.93,10.0,South,9.2,-,N/A,,Clear,190,2013-10-07 17:15:00
12:35 PM,59.0,37.4,45,29.92,10.0,SW,10.4,-,N/A,,Clear,220,2013-10-07 17:35:00
12:55 PM,59.0,37.4,45,29.92,10.0,SSW,10.4,-,N/A,,Clear,200,2013-10-07 17:55:00
1:15 PM,59.0,37.4,45,29.91,10.0,SSW,8.1,-,N/A,,Clear,200,2013-10-07 18:15:00
1:35 PM,60.8,37.4,42,29.90,10.0,South,12.7,17.3,N/A,,Clear,190,2013-10-07 18:35:00
1:55 PM,62.6,37.4,39,29.89,10.0,SSW,9.2,17.3,N/A,,Clear,200,2013-10-07 18:55:00
2:15 PM,62.6,37.4,39,29.88,10.0,South,9.2,16.1,N/A,,Clear,190,2013-10-07 19:15:00
2:35 PM,62.6,35.6,37,29.87,10.0,South,11.5,-,N/A,,Clear,190,2013-10-07 19:35:00
2:55 PM,62.6,33.8,34,29.87,10.0,SSW,11.5,16.1,N/A,,Clear,210,2013-10-07 19:55:00
3:15 PM,62.6,35.6,37,29.86,10.0,SSW,15.0,18.4,N/A,,Clear,200,2013-10-07 20:15:00
3:35 PM,62.6,35.6,37,29.85,10.0,South,13.8,19.6,N/A,,Clear,180,2013-10-07 20:35:00
3:55 PM,62.6,35.6,37,29.84,10.0,South,15.0,19.6,N/A,,Clear,180,2013-10-07 20:55:00
4:15 PM,62.6,35.6,37,29.83,10.0,South,12.7,-,N/A,,Clear,180,2013-10-07 21:15:00
4:35 PM,62.6,32.0,32,29.83,10.0,South,13.8,-,N/A,,Clear,170,2013-10-07 21:35:00
4:55 PM,62.6,33.8,34,29.82,10.0,South,16.1,-,N/A,,Clear,180,2013-10-07 21:55:00
5:15 PM,62.6,33.8,34,29.82,10.0,South,15.0,-,N/A,,Clear,190,2013-10-07 22:15:00
5:35 PM,62.6,33.8,34,29.81,10.0,South,12.7,-,N/A,,Clear,180,2013-10-07 22:35:00
5:55 PM,60.8,32.0,34,29.80,10.0,South,13.8,-,N/A,,Clear,180,2013-10-07 22:55:00
6:15 PM,59.0,33.8,39,29.79,10.0,South,12.7,18.4,N/A,,Clear,180,2013-10-07 23:15:00
6:35 PM,59.0,35.6,42,29.79,10.0,South,11.5,-,N/A,,Clear,170,2013-10-07 23:35:00
6:55 PM,55.4,35.6,47,29.78,10.0,SSE,8.1,-,N/A,,Clear,160,2013-10-07 23:55:00
7:15 PM,51.8,35.6,54,29.78,10.0,SSE,10.4,-,N/A,,Clear,150,2013-10-08 00:15:00
7:35 PM,51.8,35.6,54,29.78,10.0,SSE,11.5,-,N/A,,Clear,150,2013-10-08 00:35:00
7:55 PM,50.0,35.6,58,29.77,10.0,SSE,11.5,-,N/A,,Clear,150,2013-10-08 00:55:00
8:15 PM,50.0,37.4,62,29.76,10.0,SSE,12.7,-,N/A,,Clear,150,2013-10-08 01:15:00
8:35 PM,50.0,37.4,62,29.75,10.0,SSE,12.7,-,N/A,,Clear,150,2013-10-08 01:35:00
8:55 PM,51.8,35.6,54,29.74,10.0,SSE,13.8,-,N/A,,Clear,160,2013-10-08 01:55:00
9:15 PM,53.6,37.4,54,29.73,10.0,SSE,15.0,-,N/A,,Clear,160,2013-10-08 02:15:00
9:35 PM,53.6,37.4,54,29.73,10.0,SSE,15.0,23.0,N/A,,Clear,160,2013-10-08 02:35:00
9:55 PM,53.6,37.4,54,29.72,10.0,South,15.0,-,N/A,,Clear,170,2013-10-08 02:55:00
10:15 PM,53.6,39.2,58,29.72,10.0,South,16.1,23.0,N/A,,Clear,170,2013-10-08 03:15:00
10:35 PM,53.6,39.2,58,29.71,10.0,South,17.3,-,N/A,,Clear,170,2013-10-08 03:35:00
10:55 PM,53.6,39.2,58,29.70,10.0,South,15.0,21.9,N/A,,Clear,180,2013-10-08 03:55:00
11:15 PM,53.6,41.0,62,29.69,10.0,South,16.1,21.9,N/A,,Clear,180,2013-10-08 04:15:00
11:35 PM,51.8,41.0,67,29.69,10.0,South,16.1,21.9,N/A,,Clear,190,2013-10-08 04:35:00
11:55 PM,50.0,41.0,71,29.68,10.0,South,16.1,-,N/A,,Clear,190,2013-10-08 04:55:00